Location: Huberhof
(49.2050°N, 7.4980°E)
Time: 01:19:03
(UTC+00:00)

SKYMED 2 - Pass Details

Date: 29 October 2020
Orbit: 621 x 623 km, 97.9° (Epoch: 26 November)

Event Time Altitude Azimuth Distance (km) Brightness Sun altitude
Rises 17:48:42 0° 13° (NNE) 2,916 6.9 -16.1°
Reaches altitude 10° 17:50:54 10° 13° (NNE) 2,005 6.0 -16.4°
Maximum altitude 17:55:16 85° 287° (WNW) 632 3.6 -17.1°
Drops below altitude 10° 17:59:36 10° 197° (SSW) 1,987 6.4 -17.9°
Sets 18:01:46 0° 197° (SSW) 2,889 7.2 -18.2°
